TimeCST,TemperatureF,Dew PointF,Humidity,Sea Level PressureIn,VisibilityMPH,Wind Direction,Wind SpeedMPH,Gust SpeedMPH,PrecipitationIn,Events,Conditions,WindDirDegrees,DateUTC
12:53 AM,52.0,30.9,45,29.52,10.0,SSW,13.8,-,N/A,,Clear,200,2013-03-04 06:53:00
1:53 AM,48.9,32.0,52,29.50,10.0,SSW,13.8,-,N/A,,Clear,200,2013-03-04 07:53:00
2:53 AM,48.0,32.0,54,29.48,10.0,SSW,15.0,-,N/A,,Clear,210,2013-03-04 08:53:00
3:53 AM,52.0,30.9,45,29.49,10.0,West,15.0,-,N/A,,Clear,270,2013-03-04 09:53:00
4:53 AM,51.1,35.1,54,29.50,10.0,NW,21.9,26.5,N/A,,Clear,310,2013-03-04 10:53:00
5:53 AM,48.9,37.0,64,29.52,10.0,NW,21.9,28.8,N/A,,Clear,320,2013-03-04 11:53:00
6:53 AM,48.0,37.0,66,29.56,10.0,NW,20.7,-,N/A,,Clear,310,2013-03-04 12:53:00
7:53 AM,50.0,37.9,63,29.60,10.0,NW,17.3,-,N/A,,Clear,310,2013-03-04 13:53:00
8:53 AM,55.0,39.0,55,29.63,10.0,NNW,16.1,-,N/A,,Clear,330,2013-03-04 14:53:00
9:53 AM,60.1,39.9,47,29.65,10.0,NNW,17.3,-,N/A,,Clear,330,2013-03-04 15:53:00
10:53 AM,63.0,39.9,43,29.65,10.0,NNW,16.1,-,N/A,,Clear,340,2013-03-04 16:53:00
11:53 AM,64.0,37.9,38,29.67,10.0,North,21.9,27.6,N/A,,Clear,360,2013-03-04 17:53:00
12:53 PM,63.0,37.9,40,29.66,10.0,North,20.7,-,N/A,,Clear,10,2013-03-04 18:53:00
1:53 PM,63.0,39.0,41,29.66,10.0,North,15.0,24.2,N/A,,Clear,10,2013-03-04 19:53:00
2:53 PM,63.0,39.0,41,29.65,10.0,North,18.4,-,N/A,,Clear,10,2013-03-04 20:53:00
3:53 PM,62.1,39.0,43,29.65,10.0,NNE,19.6,-,N/A,,Clear,20,2013-03-04 21:53:00
4:53 PM,60.1,39.9,47,29.68,10.0,North,18.4,-,N/A,,Clear,350,2013-03-04 22:53:00
5:53 PM,55.9,39.0,53,29.72,10.0,NNE,19.6,-,N/A,,Clear,20,2013-03-04 23:53:00
6:53 PM,48.9,37.9,66,29.77,10.0,North,27.6,32.2,N/A,,Clear,10,2013-03-05 00:53:00
7:53 PM,45.0,37.0,74,29.87,10.0,North,33.4,42.6,N/A,,Mostly Cloudy,10,2013-03-05 01:53:00
8:37 PM,44.6,35.6,71,29.93,10.0,North,32.2,42.6,N/A,,Scattered Clouds,360,2013-03-05 02:37:00
8:53 PM,43.0,34.0,71,29.93,10.0,North,33.4,44.9,N/A,,Partly Cloudy,360,2013-03-05 02:53:00
9:53 PM,43.0,30.9,62,29.98,10.0,North,32.2,46.0,N/A,,Clear,10,2013-03-05 03:53:00
10:45 PM,41.0,32.0,70,30.08,10.0,North,33.4,44.9,N/A,,Mostly Cloudy,360,2013-03-05 04:45:00
10:53 PM,41.0,32.0,70,30.09,10.0,North,29.9,42.6,N/A,,Overcast,360,2013-03-05 04:53:00
11:17 PM,39.2,30.2,70,30.13,10.0,North,27.6,38.0,N/A,,Mostly Cloudy,360,2013-03-05 05:17:00
11:53 PM,39.9,30.0,68,30.13,10.0,North,28.8,38.0,N/A,,Overcast,360,2013-03-05 05:53:00